Tracking 28790 objects as of 18-Apr-2024
HD Live streaming from Space Station
objects crossing your sky now

STARLINK-3555

Track STARLINK-3555 now!
10-day predictions
STARLINK-3555 is classified as:


NORAD ID: 51863
Int'l Code: 2022-022M
Perigee: 545.9 km
Apogee: 547.8 km
Inclination: 53.2 °
Period: 95.4 minutes
Semi major axis: 6917 km
RCS: Unknown
Launch date: March 3, 2022
Source: United States (US)
Launch site: AIR FORCE EASTERN TEST RANGE (AFETR)
Your satellite tracking list
Your tracking list is empty




NASA's NSSDC Master Catalog

Two Line Element Set (TLE):
1 51863U 22022M   24108.62373741  .00003155  00000-0  21620-3 0  9997
2 51863  53.2166 231.4330 0001370 102.4112 257.7033 15.08841904118788
Source of the keplerian elements: AFSPC